Location: ????
(30.1475°N, 31.1342°E)
Time: 04:45:49
(UTC+00:00)

ARIANE 5 R/B - Visible Passes

Search period start: 28 March 2023 00:00
Search period end: 07 April 2023 00:00
Orbit: 748 x 794 km, 98.8° (Epoch: 27 March)

Date Brightness Start Highest point End Pass type
(mag) Time Alt. Az. Time Alt. Az. Time Alt. Az.
28 Mar 2.9 01:50:20 10° NNE 01:55:29 63° ESE 01:58:41 23° S visible
29 Mar 4.4 01:16:02 10° NE 01:20:22 26° E 01:23:25 16° SE visible
29 Mar 3.5 02:54:57 10° NNW 02:59:18 28° WNW 03:03:40 10° SW visible
30 Mar 5.4 00:43:58 10° E 00:45:07 11° E 00:46:17 10° ESE visible
30 Mar 2.5 02:19:20 10° N 02:24:28 65° WNW 02:28:28 17° SSW visible
31 Mar 3.2 01:44:24 10° NNE 01:49:29 54° E 01:53:11 18° S visible
01 Apr 4.6 01:10:18 10° NE 01:14:22 23° E 01:17:53 12° SE visible
01 Apr 3.3 02:48:46 10° N 02:53:22 32° WNW 02:57:58 10° SW visible
02 Apr 2.4 02:13:17 10° N 02:18:30 76° WNW 02:22:55 15° SSW visible
03 Apr 3.5 01:38:30 10° NNE 01:43:30 46° E 01:47:36 15° S visible
04 Apr 4.9 01:04:36 10° NE 01:08:20 20° E 01:12:02 10° SE visible
04 Apr 3.1 02:42:38 10° N 02:47:24 38° WNW 02:52:11 10° SW visible
05 Apr 2.5 02:07:17 10° NNE 02:12:32 88° WNW 02:17:20 12° SSW visible
06 Apr 3.8 01:32:36 10° NNE 01:37:29 39° E 01:42:00 12° SSE visible
06 Apr 3.9 03:12:33 10° NNW 03:16:12 20° WNW 03:19:51 10° WSW visible
